Flag Weather past 2 weeks in Torreón, Coahuila, Mexico

Now
25 °F

Clear.


Feels Like: 20 °F
Forecast: 39 / 75 °F
Wind: 3 mph from North

Location: Durango Airport

Current Time: Nov 29, 2014 at 4:26:39 AM

Latest Report: Nov 29, 2014 at 3:40 AM


Visibility: 6 mi

Pressure: 30.25 "Hg

Humidity: 69%

Dew point: 16 °F

Location of TorreónLocation

Historic Weather in Torreón — Graph

°F

Torreón temperature yesterday

Maximum temperature yesterday: 70 °F (at 4:46 PM)
Minimum temperature yesterday: 21 °F (at 6:43 AM)
Average temperature yesterday: 46 °F

Past Weeks' High & Low Weather Summary

 TemperatureHumidityPressure
High81 °F (Nov 24, 3:42 PM)100% (Nov 14, 6:40 AM)30.51 "Hg (Nov 14, 6:40 AM)
Low16 °F (Nov 26, 6:44 AM)5% (Nov 27, 3:42 PM)29.71 "Hg (Nov 24, 2:44 PM)
Average54 °F41%30.17 "Hg
* Reported Nov 14 4:58 AM — Nov 29 2:43 AM, Torreón, Weather by CustomWeather, © 2014

Note: Actual official high and low records may vary slightly from our data, if they occured in-between our weather recording intervals... More about our weather records

Advertising

Torreón weather history for previous 24 hours

 ConditionsComfort  
Time TempWeatherWind HumidityBarometerVisibility
2:43 AM
Nov 29
27 °FClear.3 mph69%30.10 "Hg6 mi
1:40 AM28 °FClear.No wind59%30.25 "Hg6 mi
12:40 AM34 °FClear.No wind51%30.26 "Hg6 mi
11:41 PM
Nov 28
34 °FClear.No wind41%30.11 "Hg6 mi
10:40 PM36 °FClear.No wind38%30.26 "Hg6 mi
9:45 PM39 °FClear.No wind30%30.26 "Hg6 mi
8:43 PM46 °FClear.3 mph23%30.16 "Hg7 mi
7:41 PM46 °FClear.5 mph20%30.23 "Hg8 mi
6:40 PM55 °FClear.3 mph12%30.21 "Hg10 mi
5:46 PM68 °FSunny.No wind7%30.06 "Hg12 mi
4:46 PM70 °FSunny.No wind6%30.21 "Hg14 mi
3:41 PM68 °FSunny.5 mph7%30.21 "Hg14 mi
2:42 PM66 °FSunny.3 mph8%30.08 "Hg14 mi
1:41 PM64 °FSunny.No wind10%30.27 "Hg14 mi
12:43 PM61 °FSunny.6 mph12%30.32 "Hg14 mi
11:46 AM57 °FSunny.5 mph15%30.20 "Hg14 mi
10:42 AM54 °FSunny.No wind21%30.41 "Hg14 mi
9:41 AM43 °FSunny.No wind34%30.42 "Hg14 mi
8:47 AM34 °FSunny.No wind60%30.37 "Hg14 mi
7:45 AM23 °FSunny.2 mph63%30.40 "Hg14 mi
6:43 AM21 °FClear.2 mph68%30.39 "Hg10 mi
5:46 AM23 °FClear.No wind68%30.22 "Hg10 mi
4:43 AM25 °FClear.No wind63%30.37 "Hg10 mi
Weather by CustomWeather, © 2014

See weather overviewHow to use our weather pages